GW5223 Weather Reports


time (UTC)temp
C
wind
direction
speed
KPH
gust
KPH
rain 1hr
cm
rain 24hr
cm
rain mn
cm
humidity
%
barometer
mb
20260504195305 24 182 3.2 9.7 0.00 0.00 0.00 34 1009.8
20260504194804 24 272 4.8 12.9 0.00 0.00 0.00 34 1009.9
20260504193804 24 222 1.6 8.0 0.00 0.00 0.00 32 1009.9
20260504193304 24 205 1.6 11.3 0.00 0.00 0.00 33 1010.0
20260504192304 23 305 3.2 9.7 0.00 0.00 0.00 34 1010.1
20260504191804 23 185 4.8 14.5 0.00 0.00 0.00 33 1010.3
20260504190805 23 185 4.8 16.1 0.00 0.00 0.00 34 1010.4
20260504190304 23 176 8.0 14.5 0.00 0.00 0.00 34 1010.4
20260504184804 23 239 3.2 19.3 0.00 0.00 0.00 34 1010.6
20260504184305 23 183 6.4 14.5 0.00 0.00 0.00 34 1010.7
20260504183804 23 234 3.2 11.3 0.00 0.00 0.00 34 1010.8
20260504183304 23 253 4.8 12.9 0.00 0.00 0.00 31 1010.8
20260504182804 23 215 4.8 19.3 0.00 0.00 0.00 34 1011.0
20260504181804 23 170 3.2 9.7 0.00 0.00 0.00 33 1011.1
20260504181304 23 197 3.2 9.7 0.00 0.00 0.00 34 1011.2
20260504180805 23 155 3.2 8.0 0.00 0.00 0.00 33 1011.1
20260504180304 23 180 3.2 8.0 0.00 0.00 0.00 34 1011.3
20260504175805 23 223 3.2 12.9 0.00 0.00 0.00 33 1011.4
20260504175304 23 221 1.6 14.5 0.00 0.00 0.00 36 1011.4
20260504173804 22 189 3.2 12.9 0.00 0.00 0.00 39 1011.6
20260504173304 22 283 3.2 4.8 0.00 0.00 0.00 35 1011.7
20260504172804 22 213 3.2 12.9 0.00 0.00 0.00 38 1011.7
20260504172304 22 293 1.6 8.0 0.00 0.00 0.00 38 1011.7
20260504171805 22 238 3.2 9.7 0.00 0.00 0.00 36 1011.8
20260504171304 22 233 3.2 4.8 0.00 0.00 0.00 36 1011.9
20260504170805 22 254 3.2 9.7 0.00 0.00 0.00 37 1012.0
20260504170305 22 273 3.2 9.7 0.00 0.00 0.00 38 1012.0
20260504160304 21 311 1.6 9.7 0.00 0.00 0.00 41 1013.0
20260504150804 20 211 1.6 9.7 0.00 0.00 0.00 46 1013.5
20260504150304 20 294 4.8 14.5 0.00 0.00 0.00 46 1013.5
20260504140804 18 179 3.2 9.7 0.00 0.00 0.00 53 1013.8
20260504140304 18 202 1.6 11.3 0.00 0.00 0.00 54 1013.8
20260504130804 15 170 1.6 12.9 0.00 0.00 0.00 59 1014.2
20260504130304 15 241 1.6 4.8 0.00 0.00 0.00 61 1014.2
20260504120304 12 224 1.6 19.3 0.00 0.00 0.00 75 1014.5
20260504081804 7 237 0.0 1.6 0.00 0.00 0.00 66 1014.7
20260504081304 7 237 0.0 0.0 0.00 0.00 0.00 66 1014.6
20260504080804 7 237 0.0 0.0 0.00 0.00 0.00 65 1014.6
20260504080303 7 237 0.0 0.0 0.00 0.00 0.00 65 1014.6
20260504070304 7 215 0.0 1.6 0.00 0.00 0.00 63 1014.4
20260504050305 8 202 0.0 0.0 0.00 0.00 0.00 61 1014.2
20260504045805 8 202 0.0 0.0 0.00 0.00 0.00 61 1014.2
20260504045304 8 202 0.0 1.6 0.00 0.00 0.00 60 1014.3
20260504044804 8 201 0.0 1.6 0.00 0.00 0.00 60 1014.3
20260504044304 8 201 0.0 0.0 0.00 0.00 0.00 59 1014.2
20260504043804 8 201 0.0 1.6 0.00 0.00 0.00 59 1014.1
20260504043304 8 201 0.0 1.6 0.00 0.00 0.00 58 1014.0
20260504042804 8 201 0.0 0.0 0.00 0.00 0.00 58 1013.9
20260504042304 8 201 0.0 0.0 0.00 0.00 0.00 58 1013.9
20260504041304 8 199 0.0 1.6 0.00 0.00 0.00 58 1013.8
20260504040843 8 201 0.0 0.0 0.00 0.00 0.00 58 1013.8
20260504040304 8 201 0.0 1.6 0.00 0.00 0.00 58 1013.7
20260504035305 8 202 0.0 1.6 0.00 0.00 0.00 58 1013.6
20260504034804 8 199 0.0 0.0 0.00 0.00 0.00 58 1013.6
20260504034303 8 199 0.0 0.0 0.00 0.00 0.00 58 1013.6
20260504033805 8 199 0.0 1.6 0.00 0.00 0.00 58 1013.6
20260504033304 9 199 0.0 0.0 0.00 0.00 0.00 57 1013.6
20260504032803 9 199 0.0 0.0 0.00 0.00 0.00 56 1013.5
20260504032304 9 199 0.0 1.6 0.00 0.00 0.00 56 1013.5
20260504031804 9 199 0.0 1.6 0.00 0.00 0.00 56 1013.5
20260504031305 9 199 0.0 1.6 0.00 0.00 0.00 55 1013.4
20260504030804 9 199 0.0 1.6 0.00 0.00 0.00 56 1013.4
20260504030303 9 200 0.0 0.0 0.00 0.00 0.00 56 1013.4
20260504025304 9 200 0.0 1.6 0.00 0.00 0.00 55 1013.5
20260504024304 9 200 0.0 0.0 0.00 0.00 0.00 54 1013.4
20260504023805 10 200 0.0 1.6 0.00 0.00 0.00 54 1013.4
20260504022804 10 260 0.0 3.2 0.00 0.00 0.00 54 1013.5
20260504021804 10 264 0.0 0.0 0.00 0.00 0.00 53 1013.4
20260504021304 10 264 0.0 1.6 0.00 0.00 0.00 53 1013.4
20260504020303 10 264 0.0 0.0 0.00 0.00 0.00 53 1013.4
20260504015803 10 264 0.0 0.0 0.00 0.00 0.00 52 1013.4
20260504014804 10 264 0.0 1.6 0.00 0.00 0.00 52 1013.3
20260504014304 10 264 0.0 1.6 0.00 0.00 0.00 52 1013.3
20260504013804 10 264 0.0 0.0 0.00 0.00 0.00 52 1013.2
20260504013304 10 264 0.0 1.6 0.00 0.00 0.00 51 1013.2
20260504012803 10 255 0.0 0.0 0.00 0.00 0.00 51 1013.2
20260504012304 10 255 0.0 0.0 0.00 0.00 0.00 51 1013.1
20260504011804 10 255 0.0 0.0 0.00 0.00 0.00 51 1013.1
20260504011304 10 255 0.0 0.0 0.00 0.00 0.00 51 1012.9
20260504010804 10 255 0.0 0.0 0.00 0.00 0.00 50 1012.9
20260504005804 11 255 0.0 0.0 0.00 0.00 0.00 48 1012.7
20260504005305 11 255 0.0 0.0 0.00 0.00 0.00 47 1012.7
20260504004806 11 255 0.0 0.0 0.00 0.00 0.00 46 1012.6
20260504004304 11 255 0.0 1.6 0.00 0.00 0.00 45 1012.6
20260504003804 12 255 0.0 0.0 0.00 0.00 0.00 44 1012.5
20260504003303 12 255 0.0 0.0 0.00 0.00 0.00 43 1012.5
20260504002804 12 255 0.0 0.0 0.00 0.00 0.00 42 1012.4
20260504001805 12 255 0.0 0.0 0.00 0.00 0.00 41 1012.3
20260504001305 13 255 0.0 0.0 0.00 0.00 0.00 40 1012.2
20260504000804 13 255 0.0 1.6 0.00 0.00 0.00 40 1012.2
20260504000304 13 256 0.0 1.6 0.00 0.00 0.00 40 1012.1
20260503235804 13 248 0.0 1.6 0.00 0.00 0.00 39 1012.1
20260503235304 13 248 0.0 3.2 0.00 0.00 0.00 38 1012.1
20260503233804 14 304 0.0 1.6 0.00 0.00 0.00 37 1011.9
20260503233304 14 301 3.2 9.7 0.00 0.00 0.00 36 1011.8
20260503232305 15 269 1.6 9.7 0.00 0.00 0.00 34 1011.8
20260503231805 15 287 3.2 11.3 0.00 0.00 0.00 34 1011.8
20260503230804 15 322 3.2 9.7 0.00 0.00 0.00 33 1011.7
20260503230304 15 296 1.6 9.7 0.00 0.00 0.00 34 1011.6
20260503225804 15 285 1.6 3.2 0.00 0.00 0.00 33 1011.6
20260503225305 15 288 3.2 4.8 0.00 0.00 0.00 32 1011.6
20260503224304 16 286 3.2 9.7 0.00 0.00 0.00 34 1011.6
20260503223305 16 263 1.6 8.0 0.00 0.00 0.00 33 1011.5
20260503222803 16 306 4.8 16.1 0.00 0.00 0.00 32 1011.5
20260503222304 16 326 3.2 4.8 0.00 0.00 0.00 32 1011.5
20260503221805 16 343 1.6 9.7 0.00 0.00 0.00 31 1011.5
20260503221304 16 11 4.8 12.9 0.00 0.00 0.00 30 1011.5
20260503220804 16 309 3.2 4.8 0.00 0.00 0.00 32 1011.6
20260503215804 16 279 1.6 4.8 0.00 0.00 0.00 31 1011.6
20260503215304 16 297 3.2 9.7 0.00 0.00 0.00 31 1011.6
20260503214804 16 265 1.6 4.8 0.00 0.00 0.00 31 1011.6
20260503214304 16 273 3.2 9.7 0.00 0.00 0.00 33 1011.7
20260503213806 16 331 4.8 12.9 0.00 0.00 0.00 31 1011.6
20260503212805 16 250 3.2 9.7 0.00 0.00 0.00 32 1011.6
20260503212305 16 278 4.8 12.9 0.00 0.00 0.00 32 1011.5
20260503211805 16 284 3.2 8.0 0.00 0.00 0.00 32 1011.6
20260503205805 16 309 3.2 14.5 0.00 0.00 0.00 32 1011.6
20260503205305 16 266 3.2 16.1 0.00 0.00 0.00 32 1011.7
20260503203804 16 302 4.8 9.7 0.00 0.00 0.00 33 1011.7
20260503203305 15 314 3.2 16.1 0.00 0.00 0.00 37 1011.7
20260503202804 15 311 4.8 12.9 0.00 0.00 0.00 34 1011.8
20260503201804 16 321 4.8 9.7 0.00 0.00 0.00 33 1011.8
20260503201304 16 312 6.4 14.5 0.00 0.00 0.00 33 1011.8
20260503200804 16 322 4.8 12.9 0.00 0.00 0.00 35 1011.9
20260503200305 16 337 4.8 19.3 0.00 0.00 0.00 33 1011.9
20260503195804 16 330 4.8 12.9 0.00 0.00 0.00 33 1011.8